Weather History for Tonopah, NV

Change the Weather History Date:

Sunday, April 27, 2014

  Actual Average Record
Temperature  
Mean Temperature 48 °F 53 °F  
Max Temperature 62 °F 68 °F 84 °F (1992)
Min Temperature 33 °F 38 °F 18 °F (1984)
Degree Days  
Heating Degree Days 17 12  
Month to date heating degree days 343 431  
Since 1 July heating degree days 4730 5158  
Cooling Degree Days 0 0  
Month to date cooling degree days 0 0  
Year to date cooling degree days 0 0  
Moisture  
Dew Point 16 °F    
Average Humidity 38    
Maximum Humidity 61    
Minimum Humidity 14    
Precipitation  
Precipitation 0.00 in 0.02 in 0.08 in (1960)
Month to date precipitation 0.18 0.38  
Year to date precipitation 0.87 1.96  
Sea Level Pressure  
Sea Level Pressure 29.88 in    
Wind  
Wind Speed 12 mph (NW)    
Max Wind Speed 26 mph    
Max Gust Speed 37 mph    
Visibility 10 miles    
Events      
T = Trace of Precipitation, MM = Missing Value Source: NWS Daily Summary

Daily Weather History Graph

Daily Weather History Graph

Search for Another Location

Airport:

Trip Planner

Search our weather history database for the weather conditions in past years. The results will help you decide how hot, cold, wet, or windy it might be!

Date:

Astronomy

Apr. 27, 2014 Rise Set
Actual Time 5:56 AM PDT 7:35 PM PDT
Civil Twilight 5:28 AM PDT 8:03 PM PDT
Nautical Twilight 4:55 AM PDT 8:37 PM PDT
Astronomical Twilight 4:19 AM PDT 9:13 PM PDT
Moon 4:58 AM PDT (4/27) 6:15 PM PDT (4/27)
Length of Visible Light 14h 35m
Length of Day
13h 38m
Waning Crescent, 3% of the Moon is Illuminated
Apr 27
Waning Crescent
Apr 28
New
May 6
First Quarter
May 14
Full
May 21
Last Quarter

Hourly Weather History & Observations

Time (PDT) Temp. Windchill Dew Point Humidity Pressure Visibility Wind Dir Wind Speed Gust Speed Precip Events Conditions
12:56 AM 37.9 °F 32.1 °F 19.9 °F 48% 29.86 in 10.0 mi WNW 8.1 mph - N/A   Clear
1:56 AM 37.0 °F 29.3 °F 19.9 °F 50% 29.85 in 10.0 mi NW 11.5 mph - N/A   Clear
2:56 AM 36.0 °F 28.0 °F 19.9 °F 52% 29.86 in 10.0 mi WNW 11.5 mph - N/A   Clear
3:56 AM 34.0 °F 25.5 °F 21.0 °F 59% 29.87 in 10.0 mi WNW 11.5 mph - N/A   Clear
4:56 AM 36.0 °F 30.3 °F 21.0 °F 55% 29.87 in 10.0 mi NW 6.9 mph - N/A   Clear
5:56 AM 34.0 °F 28.8 °F 21.0 °F 59% 29.89 in 10.0 mi NNE 5.8 mph - N/A   Clear
6:56 AM 37.9 °F - 21.0 °F 51% 29.90 in 10.0 mi Calm Calm - N/A   Clear
7:56 AM 43.0 °F 38.2 °F 21.0 °F 42% 29.91 in 10.0 mi NW 8.1 mph - N/A   Clear
8:56 AM 46.0 °F 41.9 °F 19.9 °F 35% 29.91 in 10.0 mi NW 8.1 mph 17.3 mph N/A   Clear
9:56 AM 48.9 °F - 19.9 °F 32% 29.88 in 10.0 mi NW 13.8 mph - N/A   Clear
10:56 AM 53.1 °F - 21.0 °F 29% 29.90 in 10.0 mi NW 16.1 mph 23.0 mph N/A   Clear
11:56 AM 54.0 °F - 19.0 °F 25% 29.89 in 10.0 mi West 12.7 mph 24.2 mph N/A   Clear
1:56 PM 60.1 °F - 12.0 °F 15% 29.86 in 10.0 mi NNW 15.0 mph 31.1 mph N/A   Clear
3:56 PM 61.0 °F - 15.1 °F 17% 29.86 in 10.0 mi NW 17.3 mph 29.9 mph N/A   Scattered Clouds
4:56 PM 59.0 °F - 10.9 °F 15% 29.83 in 10.0 mi NNW 13.8 mph 31.1 mph N/A   Clear
5:56 PM 57.9 °F - 10.0 °F 15% 29.85 in 10.0 mi North 20.7 mph 26.5 mph N/A   Mostly Cloudy
6:56 PM 55.9 °F - 9.0 °F 15% 29.85 in 10.0 mi NNW 23.0 mph 33.4 mph N/A   Clear
7:56 PM 53.1 °F - 8.1 °F 16% 29.88 in 10.0 mi North 17.3 mph - N/A   Clear
8:56 PM 51.1 °F - 8.1 °F 18% 29.90 in 10.0 mi North 10.4 mph - N/A   Clear
9:56 PM 48.9 °F - 10.0 °F 21% 29.93 in 10.0 mi North 3.5 mph - N/A   Clear
10:56 PM 48.0 °F - 10.0 °F 22% 29.92 in 10.0 mi NNW 10.4 mph - N/A   Clear
11:56 PM 45.0 °F 41.2 °F 16.0 °F 31% 29.95 in 10.0 mi NW 6.9 mph - N/A   Clear